Regional Weather Roundup
Issued by NWS

Home | Current Version | Previous Version | Graphics & Text | Print | Product List | Glossary On
Versions: 1 2 3 4 5 6 7 8 9 10 11 12 13 14 15 16 17 18 19 20 21 22 23 24 25 26 27 28 29 30 31 32 33 34 35 36 37 38 39 40 41 42 43 44 45 46 47 48 49 50
466
ASUS44 KJAN 271810
RWRMS

MISSISSIPPI HOURLY WEATHER ROUNDUP
NATIONAL WEATHER SERVICE JACKSON MS
100 PM CDT SUN JUL 27 2014

NOTE: "FAIR: INDICATES FEW OR NO CLOUDS BELOW 12,000 FEET WITH NO
SIGNIFICANT WEATHER AND/OR OBSTRUCTIONS TO VISIBILITY.

MSZ001>002-007>008-010>013-018>021-025>028-034>036-271900-
NORTHWEST MISSISSIPPI

CITY           SKY/WX    TMP DP  RH WIND       PRES   REMARKS
CLARKSDALE     FAIR      90  77  66 SW13      30.01F HX 102
CLEVELAND      MOCLDY    91  79  69 SW8G18    30.02S HX 107
GREENWOOD      MOSUNNY   89  76  65 SW8       30.03F HX 100
6HR MIN TEMP:  76; 6HR MAX TEMP:  91;

GREENVILLE     MOSUNNY   93  77  59 W9        30.02F HX 107
6HR MIN TEMP:  79; 6HR MAX TEMP:  93;

GRENADA        FAIR      90  75  62 W9        30.03S HX 100
OLIVE BRANCH   MOSUNNY   90  81  74 W9G21     29.99F HX 108
TUNICA         MOCLDY    90  77  66 SW12      30.00F HX 102
$$

MSZ003>006-009-014>017-022>024-029>033-037>039-271900-
NORTHEAST MISSISSIPPI

CITY           SKY/WX    TMP DP  RH WIND       PRES   REMARKS
BELMONT        FAIR      88  77  70 W8        30.01F HX  99
COLUMBUS AFB   MOSUNNY   90  74  59 W13       30.03F HX  99
6HR MIN TEMP:  75; 6HR MAX TEMP:  91;

CORINTH        MOCLDY    90  75  62 SW9G20    29.98F HX 100
GOLDN TRIANGLE PTSUNNY   91  73  55 W12       30.04F HX 100
STARKVILLE     FAIR      90  75  62 W5        30.03F HX 100
TUPELO         MOSUNNY   91  74  57 W13       30.00F HX 100
6HR MIN TEMP:  76; 6HR MAX TEMP:  92;

$$

MSZ040-058-271900-
CENTRAL MISSISSIPPI

CITY           SKY/WX    TMP DP  RH WIND       PRES   REMARKS
JACKSON INTL   PTSUNNY   90  74  59 SW5       30.06F HX  99
6HR MIN TEMP:  77; 6HR MAX TEMP:  92;

JACKSON HAWKNS MOSUNNY   91  73  55 SW12      30.07F HX  99
6HR MIN TEMP:  77; 6HR MAX TEMP:  91;

MERIDIAN KEY   MOSUNNY   92  70  48 SW13      30.06F HX  97
6HR MIN TEMP:  75; 6HR MAX TEMP:  92;

MERIDIAN NAS   MOSUNNY   93  72  50 W7        30.06F HX 101
6HR MIN TEMP:  76; 6HR MAX TEMP:  93;

RAYMOND        FAIR      90  84  84 W6        30.06F HX 115
VICKSBURG      SUNNY     92  74  55 VRB6      30.05F HX 101
6HR MIN TEMP:  77; 6HR MAX TEMP:  92;

$$

MSZ059>079-271900-
SOUTH MISSISSIPPI

CITY           SKY/WX    TMP DP  RH WIND       PRES   REMARKS
BROOKHAVEN     FAIR      90  75  62 W6        30.11S HX 100
COLUMBIA       FAIR      91  75  59 VRB7      30.07F HX 102
HATTIESBURG    SUNNY     91  75  59 W5        30.08F HX 101
6HR MIN TEMP:  78; 6HR MAX TEMP:  91;

MCCOMB         SUNNY     90  73  57 W8        30.09F HX  98
6HR MIN TEMP:  76; 6HR MAX TEMP:  90;

NATCHEZ        MOSUNNY   90  75  62 SW8       30.09F HX 100
6HR MIN TEMP:  77; 6HR MAX TEMP:  90;

PINE BELT      MOSUNNY   90  73  58 W8        30.10F HX  98
6HR MIN TEMP:  75; 6HR MAX TEMP:  90;

$$

MSZ080>082-271900-
COASTAL MISSISSIPPI

CITY           SKY/WX    TMP DP  RH WIND       PRES   REMARKS
BAY ST LOUIS   MOSUNNY  N/A N/A N/A NW8       30.09F
BILOXI         MOSUNNY   88  76  67 SW10      30.08F HX  99
6HR MIN TEMP:  80; 6HR MAX TEMP:  91;

PASCAGOULA     MOSUNNY   91  76  61 S9        30.08F HX 103
6HR MIN TEMP:  78; 6HR MAX TEMP:  92;

GULFPORT       MOSUNNY   92  71  50 VRB5      30.08S HX  98
6HR MIN TEMP:  80; 6HR MAX TEMP:  95;

$$



USA.gov is the U.S. government's official web portal to all federal, state and local government web resources and services.